TimeCST,TemperatureF,Dew PointF,Humidity,Sea Level PressureIn,VisibilityMPH,Wind Direction,Wind SpeedMPH,Gust SpeedMPH,PrecipitationIn,Events,Conditions,WindDirDegrees,DateUTC
12:15 AM,8.6,5.0,85,30.16,10.0,SSW,3.5,-,N/A,,Clear,200,2013-01-05 06:15:00
12:35 AM,8.6,6.8,92,30.14,10.0,Calm,Calm,-,N/A,,Clear,0,2013-01-05 06:35:00
1:15 AM,6.8,5.0,92,30.13,10.0,NE,3.5,-,N/A,,Clear,50,2013-01-05 07:15:00
1:35 AM,8.6,5.0,85,30.11,10.0,NE,4.6,-,N/A,,Clear,50,2013-01-05 07:35:00
1:55 AM,8.6,6.8,92,30.11,10.0,Calm,Calm,-,N/A,,Clear,0,2013-01-05 07:55:00
2:15 AM,8.6,5.0,85,30.11,10.0,Calm,Calm,-,N/A,,Clear,0,2013-01-05 08:15:00
2:35 AM,8.6,5.0,85,30.13,10.0,SW,8.1,-,N/A,,Clear,230,2013-01-05 08:35:00
2:55 AM,12.2,12.2,100,30.16,7.0,SSW,4.6,-,N/A,,Clear,210,2013-01-05 08:55:00
3:15 AM,12.2,10.4,92,30.15,10.0,Calm,Calm,-,N/A,,Clear,0,2013-01-05 09:15:00
3:35 AM,10.4,6.8,85,30.13,10.0,Calm,Calm,-,N/A,,Clear,0,2013-01-05 09:35:00
3:55 AM,5.0,3.2,92,30.12,10.0,Calm,Calm,-,N/A,,Clear,0,2013-01-05 09:55:00
4:15 AM,5.0,3.2,92,30.09,10.0,East,3.5,-,N/A,,Clear,80,2013-01-05 10:15:00
4:55 AM,5.0,3.2,92,30.07,10.0,Calm,Calm,-,N/A,,Clear,0,2013-01-05 10:55:00
5:15 AM,3.2,1.4,92,30.07,10.0,Calm,Calm,-,N/A,,Clear,0,2013-01-05 11:15:00
5:35 AM,3.2,1.4,92,30.07,10.0,Calm,Calm,-,N/A,,Clear,0,2013-01-05 11:35:00
5:55 AM,3.2,1.4,92,30.06,7.0,Calm,Calm,-,N/A,,Clear,0,2013-01-05 11:55:00
6:15 AM,3.2,-0.4,85,30.07,7.0,Calm,Calm,-,N/A,,Clear,0,2013-01-05 12:15:00
6:35 AM,1.4,-4.0,78,30.06,10.0,Calm,Calm,-,N/A,,Clear,0,2013-01-05 12:35:00
7:15 AM,-0.4,-4.0,85,30.07,10.0,Calm,Calm,-,N/A,,Clear,0,2013-01-05 13:15:00
7:35 AM,1.4,-4.0,78,30.06,10.0,Calm,Calm,-,N/A,,Clear,0,2013-01-05 13:35:00
7:55 AM,-0.4,-4.0,85,30.05,10.0,Calm,Calm,-,N/A,,Clear,0,2013-01-05 13:55:00
8:15 AM,-0.4,-4.0,85,30.04,10.0,Calm,Calm,-,N/A,,Clear,0,2013-01-05 14:15:00
8:35 AM,1.4,-2.2,85,30.04,10.0,Calm,Calm,-,N/A,,Clear,0,2013-01-05 14:35:00
8:55 AM,3.2,-0.4,85,30.04,10.0,Calm,Calm,-,N/A,,Clear,0,2013-01-05 14:55:00
9:15 AM,5.0,1.4,85,30.03,10.0,Calm,Calm,-,N/A,,Clear,0,2013-01-05 15:15:00
9:35 AM,6.8,3.2,85,30.03,10.0,Calm,Calm,-,N/A,,Clear,0,2013-01-05 15:35:00
10:15 AM,14.0,12.2,93,30.01,10.0,Calm,Calm,-,N/A,,Clear,0,2013-01-05 16:15:00
10:35 AM,19.4,19.4,100,30.01,10.0,Calm,Calm,-,N/A,,Clear,0,2013-01-05 16:35:00
10:55 AM,21.2,21.2,100,30.00,10.0,South,3.5,-,N/A,,Clear,170,2013-01-05 16:55:00
11:35 AM,30.2,19.4,64,29.96,10.0,SW,5.8,-,N/A,,Clear,220,2013-01-05 17:35:00
12:15 PM,33.8,21.2,60,29.92,10.0,South,6.9,-,N/A,,Clear,190,2013-01-05 18:15:00
12:35 PM,33.8,19.4,56,29.90,10.0,SSW,6.9,-,N/A,,Clear,200,2013-01-05 18:35:00
12:55 PM,33.8,19.4,56,29.89,10.0,WSW,6.9,-,N/A,,Clear,250,2013-01-05 18:55:00
1:15 PM,35.6,19.4,52,29.88,10.0,SW,8.1,-,N/A,,Clear,220,2013-01-05 19:15:00
1:35 PM,35.6,19.4,52,29.87,10.0,SSW,11.5,18.4,N/A,,Clear,210,2013-01-05 19:35:00
2:15 PM,35.6,21.2,56,29.86,10.0,SW,6.9,-,N/A,,Clear,230,2013-01-05 20:15:00
2:35 PM,33.8,21.2,60,29.86,10.0,SW,9.2,16.1,N/A,,Clear,220,2013-01-05 20:35:00
2:55 PM,33.8,21.2,60,29.86,10.0,SW,10.4,16.1,N/A,,Clear,220,2013-01-05 20:55:00
3:15 PM,33.8,21.2,60,29.85,10.0,SW,9.2,20.7,N/A,,Clear,220,2013-01-05 21:15:00
3:35 PM,32.0,21.2,64,29.85,10.0,SW,6.9,16.1,N/A,,Clear,220,2013-01-05 21:35:00
3:55 PM,32.0,21.2,64,29.85,10.0,WSW,5.8,-,N/A,,Clear,240,2013-01-05 21:55:00
4:15 PM,32.0,21.2,64,29.85,10.0,WSW,5.8,-,N/A,,Clear,240,2013-01-05 22:15:00
4:35 PM,32.0,21.2,64,29.85,10.0,WSW,3.5,-,N/A,,Clear,240,2013-01-05 22:35:00
4:55 PM,30.2,21.2,69,29.85,10.0,SSW,5.8,-,N/A,,Clear,210,2013-01-05 22:55:00
5:15 PM,30.2,23.0,75,29.85,10.0,SW,3.5,-,N/A,,Clear,220,2013-01-05 23:15:00
5:55 PM,32.0,23.0,69,29.85,10.0,SW,4.6,-,N/A,,Overcast,220,2013-01-05 23:55:00
6:35 PM,32.0,24.8,75,29.85,10.0,SW,6.9,-,N/A,,Overcast,230,2013-01-06 00:35:00
7:15 PM,32.0,24.8,75,29.86,10.0,West,8.1,-,N/A,,Overcast,260,2013-01-06 01:15:00
7:35 PM,32.0,24.8,75,29.87,10.0,West,9.2,-,N/A,,Overcast,270,2013-01-06 01:35:00
7:55 PM,30.2,23.0,75,29.87,10.0,West,10.4,13.8,N/A,,Overcast,270,2013-01-06 01:55:00
8:15 PM,30.2,23.0,75,29.87,10.0,West,15.0,18.4,N/A,,Overcast,270,2013-01-06 02:15:00
8:35 PM,30.2,23.0,75,29.88,10.0,West,9.2,16.1,N/A,,Overcast,270,2013-01-06 02:35:00
8:55 PM,28.4,21.2,74,29.89,10.0,West,8.1,-,N/A,,Overcast,270,2013-01-06 02:55:00
9:15 PM,28.4,21.2,74,29.88,10.0,WNW,8.1,-,N/A,,Overcast,290,2013-01-06 03:15:00
9:35 PM,28.4,21.2,74,29.88,10.0,West,9.2,-,N/A,,Overcast,270,2013-01-06 03:35:00
10:15 PM,26.6,21.2,80,29.89,10.0,West,10.4,-,N/A,,Overcast,280,2013-01-06 04:15:00
10:35 PM,24.8,19.4,80,29.91,10.0,WNW,9.2,-,N/A,,Mostly Cloudy,290,2013-01-06 04:35:00
10:55 PM,23.0,15.8,74,29.92,10.0,WNW,6.9,-,N/A,,Scattered Clouds,300,2013-01-06 04:55:00
11:35 PM,23.0,15.8,74,29.91,10.0,NW,5.8,-,N/A,,Mostly Cloudy,310,2013-01-06 05:35:00
11:55 PM,23.0,14.0,68,29.91,10.0,WNW,5.8,-,N/A,,Clear,300,2013-01-06 05:55:00